STARLINK-35771, 67171

Orbit data source: Space-Track

STARLINK-35771, 67171 is a payload satellite owned by SpaceX/Seattle (US) in LEO that was launched on Wed, 17 Dec 2025 UTC via an FALCON 9 launch vehicle from the Air Force Eastern Test Range (AFETR). Payload-class satellites include a variety of spacecraft equipped with specific instruments for various scientific and technological missions. These include communications satellites like Starlink; space stations such as the ISS; scientific satellites like the Hubble; Earth observation satellites from companies like Planet Labs, Umbra, and HawkEye 360; GPS; miniature CubeSats for education and research; and military/defense satellites.

Loading next visibility...
Identifier
67171, 2025-303J
Orbit
LEO
Country
Flag of USUS
Related business
Manufacturer
SpaceX/Seattle
Mission
Operational Commercial Communications
Bus & Motor
STARLINK V2MO, Unknown motor
Mass
575 kg wet, ~530 kg dry
Launch date (UTC)
2025-12-17 (6 months ago)
Launch vehicle
FALCON 9
Launch site
Air Force Eastern Test Range (AFETR)
Object type
Payload
Rocket body
Debris
Shape & HBR
Box + 2 Pan, 17.7 m
Radar Cross Section
36.964 m², Large (>1 m²)

Expand to show TLE details & history
Last TLE update: 18 hours ago

TLE from 18 hours ago
0 STARLINK-35771
1 67171U 25303J   26171.10069796  .00018539  00000-0  68085-3 0  9996
2 67171  43.0045  92.6968 0001136 273.5662  86.5060 15.27612763 28399
Epoch: 2026-06-20T02:25Z
TLE epoch observation values (Epoch: 2026-06-20T02:25:00.303Z)
Latitude
-0.00001°
Longitude
148.12536°
Altitude
482.679 km
Speed
7.626 km/s
True Right ascension
06h 10m 47s
True Declination
0° 00' 00"
Sunlit
Object was in daylight at epoch
Visualization orbit readout
Latitude
Unknown
Longitude
Unknown
Altitude
Unknown
Speed
Unknown
Apparent Right ascension
Unknown
Apparent Declination
Unknown
Sunlit
N/A
Visualization observer readout
Local Sidereal Time
07:17:20
Azimuth
Unknown
Elevation
Unknown
Doppler factor
Unknown
Orbital elements
Apogee altitude
485.675 km
Perigee altitude
484.116 km
Semi-major axis
6,863.032 km
Eccentricity
0.00011
Inclination
43.0045°
RAAN
92.6968°
Arg. of periapsis
273.5662°
True anomaly
86.51899°
Mean anomaly
86.506°
Eccentric anomaly
86.5125°
Mean motion
3.81741 °/min
Orbital period
94.3 mins
BSTAR
0.00068085
Loading maneuver chart data...
Computing Atmospheric mass density...
Loading historical data...
Loading historical data...
Loading historical data...
Loading historical data...
Loading historical data...
Loading historical data...
Loading historical data...

Documentation

Showing up to 5 results
|